IBE005 LPPT-LEZL

Flight info

Callsign IBE005
Flight time 0h 40m
Altitude 31000
Route DUZOP MINTA N747 OSLEP
Aircraft B738/M-SDE2E3FGHIRWXY/LB1

Departure

Time 2026-05-08 07:21
Airport Lisbon Humberto Delgado Airport (LPPT)

Arrival

Time 2026-05-08 08:01
Airport Seville Airport (LEZL)
Time Latitude Longitude Altitude Speed Heading
2026-05-08 07:15 38.77667 -9.13207 386 ft 0 kts 115°
2026-05-08 07:17 38.77667 -9.13206 386 ft 0 kts 115°
2026-05-08 07:17 38.77669 -9.13211 386 ft 2 kts 115°
2026-05-08 07:17 38.77675 -9.13230 386 ft 3 kts 115°
2026-05-08 07:18 38.77684 -9.13253 386 ft 3 kts 115°
2026-05-08 07:18 38.77687 -9.13250 386 ft 5 kts 76°
2026-05-08 07:18 38.77760 -9.13256 386 ft 20 kts 310°
2026-05-08 07:18 38.77862 -9.13373 386 ft 20 kts 350°
2026-05-08 07:19 38.78000 -9.13406 386 ft 20 kts 349°
2026-05-08 07:19 38.78135 -9.13441 386 ft 20 kts 349°
2026-05-08 07:19 38.78271 -9.13480 386 ft 20 kts 346°
2026-05-08 07:19 38.78407 -9.13521 386 ft 20 kts 352°
2026-05-08 07:20 38.78545 -9.13549 386 ft 20 kts 350°
2026-05-08 07:20 38.78618 -9.13664 386 ft 20 kts 251°
2026-05-08 07:20 38.78380 -9.13659 386 ft 84 kts 167°
2026-05-08 07:20 38.77456 -9.13417 480 ft 179 kts 168°
2026-05-08 07:21 38.76168 -9.13017 1763 ft 193 kts 161°
2026-05-08 07:21 38.74900 -9.12308 3141 ft 209 kts 155°
2026-05-08 07:21 38.73492 -9.11513 4120 ft 233 kts 157°
2026-05-08 07:21 38.71902 -9.10709 5072 ft 258 kts 160°
2026-05-08 07:22 38.70160 -9.09903 6176 ft 272 kts 163°
2026-05-08 07:22 38.68339 -9.09096 7439 ft 279 kts 165°
2026-05-08 07:22 38.66488 -9.08283 8750 ft 284 kts 165°
2026-05-08 07:22 38.64596 -9.07452 10018 ft 289 kts 165°
2026-05-08 07:23 38.62668 -9.06605 11051 ft 306 kts 165°
2026-05-08 07:23 38.61289 -9.05999 11659 ft 318 kts 165°
2026-05-08 07:23 38.59143 -9.05057 12722 ft 331 kts 165°
2026-05-08 07:23 38.56938 -9.04090 13944 ft 338 kts 165°
2026-05-08 07:24 38.54690 -9.03105 15203 ft 345 kts 165°
2026-05-08 07:24 38.52398 -9.02101 16441 ft 351 kts 165°
2026-05-08 07:24 38.50059 -9.01077 17655 ft 358 kts 165°
2026-05-08 07:24 38.47681 -9.00037 18818 ft 365 kts 165°
2026-05-08 07:25 38.45282 -8.98988 19903 ft 371 kts 165°
2026-05-08 07:25 38.42816 -8.97910 20944 ft 377 kts 165°
2026-05-08 07:25 38.37775 -8.95710 22846 ft 388 kts 165°
2026-05-08 07:26 38.35196 -8.94587 23716 ft 394 kts 165°
2026-05-08 07:26 38.32589 -8.93451 24536 ft 399 kts 165°
2026-05-08 07:26 38.29942 -8.92299 25312 ft 404 kts 165°
2026-05-08 07:26 38.27264 -8.91134 26043 ft 408 kts 164°
2026-05-08 07:27 38.24556 -8.89958 26738 ft 413 kts 164°
2026-05-08 07:27 38.21819 -8.88770 27394 ft 417 kts 164°
2026-05-08 07:27 38.19098 -8.87589 28068 ft 419 kts 164°
2026-05-08 07:27 38.16336 -8.86392 28826 ft 418 kts 164°
2026-05-08 07:28 38.13578 -8.85197 29574 ft 417 kts 164°
2026-05-08 07:28 38.10840 -8.84012 30303 ft 416 kts 164°
2026-05-08 07:28 38.08088 -8.82822 30931 ft 415 kts 164°
2026-05-08 07:29 38.02631 -8.80465 30996 ft 412 kts 165°
2026-05-08 07:29 37.97223 -8.78133 30997 ft 413 kts 165°
2026-05-08 07:30 37.91738 -8.75771 31002 ft 423 kts 164°
2026-05-08 07:30 37.86015 -8.73311 31004 ft 446 kts 164°
2026-05-08 07:31 37.80157 -8.70797 30996 ft 445 kts 164°
2026-05-08 07:31 37.74276 -8.68277 30997 ft 446 kts 164°
2026-05-08 07:32 37.68513 -8.65346 30992 ft 451 kts 150°
2026-05-08 07:32 37.66134 -8.62748 30993 ft 457 kts 134°
2026-05-08 07:32 37.64364 -8.59403 31004 ft 460 kts 119°
2026-05-08 07:33 37.61552 -8.52170 30997 ft 460 kts 119°
2026-05-08 07:33 37.58549 -8.45054 30994 ft 457 kts 119°
2026-05-08 07:34 37.55564 -8.37971 30997 ft 457 kts 119°
2026-05-08 07:34 37.52595 -8.30938 30996 ft 457 kts 120°
2026-05-08 07:35 37.49600 -8.23861 30996 ft 457 kts 120°
2026-05-08 07:35 37.46602 -8.16789 30997 ft 457 kts 120°
2026-05-08 07:36 37.43618 -8.09768 30997 ft 457 kts 120°
2026-05-08 07:36 37.40613 -8.02711 30996 ft 457 kts 120°
2026-05-08 07:37 37.37598 -7.95648 30996 ft 457 kts 120°
2026-05-08 07:37 37.34587 -7.88608 30996 ft 457 kts 120°
2026-05-08 07:38 37.31588 -7.81614 30997 ft 457 kts 120°
2026-05-08 07:38 37.28567 -7.74581 30997 ft 457 kts 120°
2026-05-08 07:39 37.25539 -7.67550 30996 ft 457 kts 120°
2026-05-08 07:39 37.22510 -7.60528 30997 ft 457 kts 120°
2026-05-08 07:40 37.19475 -7.53512 30996 ft 457 kts 120°
2026-05-08 07:40 37.16459 -7.46552 30997 ft 457 kts 120°
2026-05-08 07:41 37.13743 -7.39365 30991 ft 459 kts 105°
2026-05-08 07:41 37.13404 -7.35387 30993 ft 460 kts 88°
2026-05-08 07:41 37.13963 -7.31443 31004 ft 460 kts 73°
2026-05-08 07:42 37.15698 -7.23724 30997 ft 459 kts 76°
2026-05-08 07:42 37.16505 -7.15833 30329 ft 457 kts 91°
2026-05-08 07:42 37.16289 -7.11855 29710 ft 457 kts 94°
2026-05-08 07:43 37.16092 -7.07957 29378 ft 449 kts 93°
2026-05-08 07:43 37.15937 -7.04088 29125 ft 440 kts 93°
2026-05-08 07:43 37.15782 -7.00283 28690 ft 435 kts 93°
2026-05-08 07:43 37.15626 -6.96485 28105 ft 435 kts 93°
2026-05-08 07:44 37.15470 -6.92703 27555 ft 433 kts 93°
2026-05-08 07:44 37.15313 -6.88941 27009 ft 431 kts 93°
2026-05-08 07:44 37.15156 -6.85230 26465 ft 430 kts 93°
2026-05-08 07:44 37.14998 -6.81490 25911 ft 428 kts 93°
2026-05-08 07:45 37.14839 -6.77764 25367 ft 426 kts 93°
2026-05-08 07:45 37.14680 -6.74065 24819 ft 424 kts 93°
2026-05-08 07:45 37.14520 -6.70373 24267 ft 422 kts 93°
2026-05-08 07:45 37.14359 -6.66698 23712 ft 420 kts 93°
2026-05-08 07:46 37.14201 -6.63091 23155 ft 418 kts 93°
2026-05-08 07:46 37.14040 -6.59460 22592 ft 416 kts 93°
2026-05-08 07:46 37.13879 -6.55839 22029 ft 414 kts 93°
2026-05-08 07:46 37.13717 -6.52242 21455 ft 413 kts 93°
2026-05-08 07:47 37.13556 -6.48659 20880 ft 411 kts 93°
2026-05-08 07:47 37.13393 -6.45091 20306 ft 408 kts 93°
2026-05-08 07:47 37.13230 -6.41534 19716 ft 407 kts 93°
2026-05-08 07:47 37.13123 -6.39190 19325 ft 405 kts 93°
2026-05-08 07:48 37.12907 -6.34525 18544 ft 403 kts 94°
2026-05-08 07:48 37.12743 -6.31030 17938 ft 401 kts 94°
2026-05-08 07:48 37.12633 -6.28666 17495 ft 400 kts 94°
2026-05-08 07:48 37.12469 -6.25185 16805 ft 401 kts 94°
2026-05-08 07:49 37.12305 -6.21743 16128 ft 401 kts 94°
2026-05-08 07:49 37.12139 -6.18262 15433 ft 400 kts 94°
2026-05-08 07:49 37.11971 -6.14767 14709 ft 400 kts 94°
2026-05-08 07:49 37.11803 -6.11290 13993 ft 400 kts 94°
2026-05-08 07:50 37.11634 -6.07809 13321 ft 398 kts 94°
2026-05-08 07:50 37.11467 -6.04393 12957 ft 386 kts 94°
2026-05-08 07:50 37.11302 -6.01059 12478 ft 378 kts 94°
2026-05-08 07:50 37.11143 -5.97826 11842 ft 375 kts 94°
2026-05-08 07:51 37.10986 -5.94686 11170 ft 347 kts 94°
2026-05-08 07:51 37.10842 -5.91793 10745 ft 318 kts 94°
2026-05-08 07:51 37.10708 -5.89130 10495 ft 298 kts 94°
2026-05-08 07:51 37.10578 -5.86567 10283 ft 291 kts 94°
2026-05-08 07:52 37.10452 -5.84066 10086 ft 293 kts 94°
2026-05-08 07:52 37.10328 -5.81498 9792 ft 295 kts 92°
2026-05-08 07:52 37.10645 -5.78946 9189 ft 298 kts 71°
2026-05-08 07:52 37.11498 -5.76637 8620 ft 286 kts 59°
2026-05-08 07:53 37.12460 -5.74502 8127 ft 277 kts 59°
2026-05-08 07:53 37.13369 -5.72380 7757 ft 273 kts 59°
2026-05-08 07:53 37.14555 -5.70625 7317 ft 268 kts 37°
2026-05-08 07:53 37.16118 -5.69322 6994 ft 270 kts 26°
2026-05-08 07:54 37.17753 -5.68171 6653 ft 268 kts 26°
2026-05-08 07:54 37.19346 -5.66994 6329 ft 263 kts 27°
2026-05-08 07:54 37.20900 -5.65795 6078 ft 261 kts 28°
2026-05-08 07:54 37.22431 -5.64594 5756 ft 257 kts 29°
2026-05-08 07:55 37.23929 -5.63416 5439 ft 253 kts 30°
2026-05-08 07:55 37.25421 -5.62241 5223 ft 253 kts 30°
2026-05-08 07:55 37.26993 -5.61307 4945 ft 249 kts 14°
2026-05-08 07:55 37.28680 -5.61004 4804 ft 248 kts
2026-05-08 07:56 37.30403 -5.60931 4582 ft 247 kts
2026-05-08 07:56 37.32118 -5.60857 4333 ft 247 kts
2026-05-08 07:56 37.33851 -5.60753 4089 ft 248 kts
2026-05-08 07:56 37.35587 -5.60639 3739 ft 252 kts
2026-05-08 07:57 37.37357 -5.60520 3340 ft 256 kts
2026-05-08 07:57 37.39117 -5.60717 3106 ft 253 kts 343°
2026-05-08 07:57 37.40559 -5.61896 3094 ft 248 kts 315°
2026-05-08 07:57 37.41446 -5.63711 3106 ft 248 kts 295°
2026-05-08 07:58 37.41863 -5.65762 3097 ft 237 kts 278°
2026-05-08 07:58 37.41910 -5.67796 3085 ft 229 kts 268°
2026-05-08 07:58 37.41820 -5.69798 2880 ft 227 kts 267°
2026-05-08 07:58 37.41777 -5.71732 2636 ft 216 kts 269°
2026-05-08 07:59 37.41773 -5.73605 2293 ft 212 kts 270°
2026-05-08 07:59 37.41780 -5.75423 1985 ft 208 kts 270°
2026-05-08 07:59 37.41785 -5.77228 1699 ft 204 kts 270°
2026-05-08 07:59 37.41788 -5.78991 1429 ft 200 kts 270°
2026-05-08 08:00 37.41788 -5.80730 1168 ft 196 kts 270°
2026-05-08 08:00 37.41788 -5.82421 958 ft 188 kts 270°
2026-05-08 08:00 37.41789 -5.84026 705 ft 180 kts 270°
2026-05-08 08:00 37.41791 -5.85564 421 ft 172 kts 270°
2026-05-08 08:01 37.41793 -5.87066 224 ft 167 kts 270°
2026-05-08 08:01 37.41794 -5.88411 128 ft 139 kts 270°
2026-05-08 08:01 37.41794 -5.89293 123 ft 46 kts 270°
2026-05-08 08:01 37.41800 -5.89470 123 ft 12 kts 277°
2026-05-08 08:02 37.41809 -5.89593 123 ft 18 kts 275°
2026-05-08 08:02 37.41838 -5.89763 123 ft 20 kts 300°
2026-05-08 08:02 37.41949 -5.89891 123 ft 24 kts 335°
2026-05-08 08:02 37.42084 -5.89943 123 ft 17 kts 355°
2026-05-08 08:03 37.42173 -5.89954 123 ft 7 kts 346°
2026-05-08 08:03 37.42191 -5.89959 123 ft 0 kts 346°